Regional Weather Roundup
Issued by NWS

Home | Current Version | Previous Version | Text Only | Print | Product List | Glossary Off
Versions: 1 2 3 4 5 6 7 8 9 10 11 12 13 14 15 16 17 18 19 20 21 22 23 24 25 26 27 28

000
ASUS45 KTFX 281510
RWRMT
MONTANA REGIONAL WEATHER ROUNDUP
NATIONAL WEATHER SERVICE GREAT FALLS MT
900 AM MDT SAT MAY 28 2016

NOTE: "FAIR" INDICATES FEW OR NO CLOUDS BELOW 12000 FEET WITH NO
SIGNIFICANT WEATHER AND/OR OBSTRUCTIONS TO VISIBILITY.

MTZ001>007-043-281600-
WEST OF THE DIVIDE

CITY           SKY/WX    TMP DP  RH WIND       PRES   REMARKS
KALISPELL      CLOUDY    46  40  79 CALM      30.02R
MISSOULA       MOSUNNY   45  36  70 E5        30.07S
BUTTE          CLOUDY    42  35  76 CALM      30.05R
MULLAN PASS    PTSUNNY   35  29  78 VRB3      30.04R
ANACONDA         N/A     46  30  53 W12       30.04R
DEER LODGE       N/A     43  36  75 CALM      30.07R
EUREKA           N/A     52  37  58 S7        30.01R
HAMILTON         N/A     46  36  66 S3        30.06S
LIBBY            N/A     46  37  71 CALM      30.03F
$$

MTZ008-052>055-281600-
SOUTHWEST MONTANA

CITY           SKY/WX    TMP DP  RH WIND       PRES   REMARKS
BOZEMAN        CLOUDY    48  43  82 CALM      30.04R
DILLON         CLOUDY    44  41  89 SW3       30.02R
W YELLOWSTONE  CLOUDY    39  30  70 SW6G16    30.08R
ENNIS          CLOUDY    45  39  81 CALM      30.09R
$$

MTZ009-010-012-014-046-048-049-054-281600-
EAST SLOPES AND CENTRAL MONTANA

CITY           SKY/WX    TMP DP  RH WIND       PRES   REMARKS
CUT BANK       MOSUNNY   50  33  52 W12G20    29.94S
GREAT FALLS    SUNNY     52  32  46 SW18      29.98R
MALMSTROM AFB  SUNNY     52  33  49 SW21      29.98R
HELENA         SUNNY     52  35  52 N5        30.02S
CHOTEAU          N/A     52  28  40 W15       29.97S
$$

MTZ011-013-016-021-045-047-050-051-281600-
NORTH CENTRAL MONTANA

CITY           SKY/WX    TMP DP  RH WIND       PRES   REMARKS
HAVRE          SUNNY     55  41  59 SW13      29.92S
LEWISTOWN      MOSUNNY   52  39  61 W7        29.98R
N BAR RANCH    PTSUNNY   52  39  62 NW12      29.99R
CHINOOK          N/A     55  43  62 W9        29.92S
$$

MTZ017>020-022>027-061-062-281600-
NORTHEAST MONTANA

CITY           SKY/WX    TMP DP  RH WIND       PRES   REMARKS
GLASGOW        CLOUDY    53  51  93 W12       29.89R
JORDAN           N/A     54  50  86 NW13      29.91S
SIDNEY         CLOUDY    60  54  80 SE6       29.88S
WOLF POINT     CLOUDY    60  53  77 CALM      29.88R
PLENTYWOOD       N/A     54  54 100 E12       29.90S
POPLAR           N/A     59  54  82 E7        29.88R
$$

MTZ028>42-056>058-281600-
SOUTHCENTRAL AND SOUTHEAST MONTANA

CITY           SKY/WX    TMP DP  RH WIND       PRES   REMARKS
BAKER          PTSUNNY   63  48  58 SW9       29.90R
BILLINGS       CLOUDY    53  41  63 NW7       29.99R
LIVINGSTON     CLOUDY    50  38  63 NW6       30.01S
MILES CITY     CLOUDY    55  49  80 W14       29.92R
FORSYTH          N/A     54  50  87 W9        29.94R
$$

REGIONAL REPORTS...DAKOTAS

CITY           SKY/WX    TMP DP  RH WIND       PRES   REMARKS
WILLISTON      CLOUDY    58  52  80 E8        29.89S
MINOT          CLOUDY    59  53  80 NE8       29.90R
DICKINSON      SUNNY     59  49  69 E3        29.87S
BEACH            N/A     61  50  67 SE5       29.91S
CROSBY         CLOUDY    50  50 100 E10       29.94S FOG
WATFORD CITY   CLOUDY    59  54  82 SE8       29.89S
BISMARCK       CLOUDY    62  55  77 NE6       29.89R
GRAND FORKS    MOSUNNY   70  54  56 NE10      29.83R
FARGO          CLOUDY    66  56  70 N6        29.81S
BUFFALO SD       N/A     64  49  57 NW3       29.84R
RAPID CITY     SUNNY     64  47  53 NW3       29.91R
$$

REGIONAL REPORTS...WYOMING/IDAHO/WASHINGTON

CITY           SKY/WX    TMP DP  RH WIND       PRES   REMARKS
GILLETTE       SUNNY     57  46  66 N8        29.96R
SHERIDAN       PTSUNNY   56  44  64 NW15      29.99R
BUFFALO WY     SUNNY     53  44  71 N16G24    30.01R
CODY           MOSUNNY   50  45  81 N3        30.01R
YELLOWSTONE LA   N/A     39  23  52 VRB7      30.11R
IDAHO FALLS    CLOUDY    48  32  53 SW18      30.05R
SALMON         CLOUDY    48  36  61 NE3       30.03R
BOISE          SUNNY     50  32  50 W6        30.09R
SPOKANE        PTSUNNY   47  35  63 SW15      30.05R
$$

REGIONAL REPORTS...ALBERTA

CITY           SKY/WX    TMP DP  RH WIND       PRES   REMARKS
EDMONTON       MOSUNNY   50  41  71 W8        29.85S
CALGARY        MOSUNNY   46  41  81 S6        29.90R
LETHBRIDGE     MOSUNNY   55  36  47 W25G32    29.90F
MEDICINE HAT   CLOUDY    50  43  76 SW8       29.88S
MILK RIVER       N/A     52  34  50 W15G21      N/A
$$

REGIONAL REPORTS...SASKATCHEWAN

CITY           SKY/WX    TMP DP  RH WIND       PRES   REMARKS
SWIFT CURRENT  LGT RAIN  48  46  93 W17G24    29.87R
REGINA         CLOUDY    54  48  82 E10G17    29.93S
SASKATOON      CLOUDY    54  50  87 SE16      29.93F
CYPRESS HILLS    N/A     45  41  87 S8          N/A
VAL MARIE        N/A     48  45  87 NW18G24     N/A
ROCKGLEN         N/A     52  52 100 SE9         N/A
$$




USA.gov is the U.S. government's official web portal to all federal, state and local government web resources and services.